7 * 24
多渠道服务支持
IRIDIUM 16 是 IRIDIUM 卫星星座中的一颗通信卫星,由美国 IRIDIUM 公司运营,主要用于提供全球范围的移动卫星通信服务。该卫星属于 LEO(低地球轨道)卫星群,运行在约 780 公里的高度,支持语音、数据和 GPS 服务。IRIDIUM 16 于 1998 年发射,是第一代 IRIDIUM 卫星系统的一部分,该系统由 66 颗卫星组成,实现全球覆盖。尽管第一代系统在 2000 年后逐步被更先进的第二代 IRIDIUM NEXT 所取代,IRIDIUM 16 在其服役期间为航空、航海和偏远地区提供了关键的通信支持。
美国
(US)
| 数据来源 | 国际轨道数据 |
| 星历时间: | 2025-10-28T22:05:36+0800 17小时前 查看轨道信息 |
| 半长轴: | 7140.527km |
| 偏心率: | 0.0002793 |
| 轨道倾角: | 86.404° |
| 近地点辐角 | 36.794° |
| 升交点赤经 | 149.291° |
| 平近点角 | 323.345° |
| 近地点: | 760.397km |
| 远地点: | 764.387km |
| 周期: | 100.082分钟 |
| 每日圈数: | 14.388232 |